• In Hungary
  • List of Countries
  • For 7 days
  • Water Temperature
  • Satellite Maps
  • Weather Map
  • News
  • Weather Widgets
  • user-avatar
    Login

    Hourly Weather Yangibino

    Today, 20 October, Saturday

    Time Temperature Precipitation Wind Pressure Humidity
    00:00 +10°C° 0 mm 2 mps 722 mmHg 31%
    01:00 +9°C° 0 mm 2 mps 722 mmHg 31%
    02:00 +9°C° 0 mm 2 mps 722 mmHg 30%
    03:00 +9°C° 0 mm 2 mps 722 mmHg 30%
    04:00 +8°C° 0 mm 2 mps 722 mmHg 28%
    05:00 +9°C° 0 mm 2 mps 722 mmHg 27%
    06:00 +9°C° 0 mm 2 mps 722 mmHg 26%
    07:00 +10°C° 0 mm 2 mps 723 mmHg 25%
    08:00 +12°C° 0 mm 3 mps 723 mmHg 24%
    09:00 +13°C° 0 mm 3 mps 723 mmHg 22%
    10:00 +16°C° 0 mm 3 mps 723 mmHg 20%
    11:00 +17°C° 0 mm 3 mps 723 mmHg 20%
    12:00 +18°C° 0 mm 3 mps 722 mmHg 19%
    13:00 +19°C° 0 mm 3 mps 722 mmHg 19%
    14:00 +19°C° 0 mm 3 mps 722 mmHg 20%
    15:00 +18°C° 0 mm 3 mps 722 mmHg 21%
    16:00 +18°C° 0 mm 3 mps 722 mmHg 21%
    17:00 +17°C° 0 mm 3 mps 722 mmHg 24%
    18:00 +15°C° 0 mm 4 mps 722 mmHg 27%
    19:00 +14°C° 0 mm 4 mps 722 mmHg 29%
    20:00 +13°C° 0 mm 3 mps 721 mmHg 31%
    21:00 +13°C° 0 mm 3 mps 721 mmHg 32%
    22:00 +12°C° 0 mm 3 mps 721 mmHg 34%
    23:00 +12°C° 0 mm 3 mps 721 mmHg 34%

    Tomorrow, 21 October, Sunday

    Time Temperature Precipitation Wind Pressure Humidity
    00:00 +12°C° 0 mm 3 mps 721 mmHg 35%
    01:00 +11°C° 0 mm 3 mps 720 mmHg 35%
    02:00 +11°C° 0 mm 3 mps 720 mmHg 35%
    03:00 +11°C° 0 mm 3 mps 720 mmHg 35%
    04:00 +11°C° 0 mm 3 mps 720 mmHg 35%
    05:00 +12°C° 0 mm 2 mps 721 mmHg 35%
    06:00 +12°C° 0 mm 2 mps 721 mmHg 34%
    07:00 +13°C° 0 mm 2 mps 721 mmHg 33%
    08:00 +15°C° 0 mm 2 mps 721 mmHg 29%
    09:00 +17°C° 0 mm 2 mps 721 mmHg 25%
    10:00 +19°C° 0 mm 2 mps 721 mmHg 22%
    11:00 +21°C° 0 mm 1 mps 721 mmHg 20%
    12:00 +22°C° 0 mm 1 mps 721 mmHg 19%
    13:00 +23°C° 0 mm 1 mps 721 mmHg 18%
    14:00 +22°C° 0 mm 1 mps 720 mmHg 18%
    15:00 +22°C° 0 mm 1 mps 720 mmHg 19%
    16:00 +22°C° 0 mm 1 mps 720 mmHg 19%
    17:00 +21°C° 0 mm 1 mps 720 mmHg 22%
    18:00 +19°C° 0 mm 1 mps 720 mmHg 24%
    19:00 +18°C° 0 mm 1 mps 720 mmHg 27%
    20:00 +16°C° 0 mm 1 mps 720 mmHg 27%
    21:00 +16°C° 0 mm 1 mps 720 mmHg 28%
    22:00 +15°C° 0 mm 1 mps 720 mmHg 28%
    23:00 +15°C° 0 mm 1 mps 719 mmHg 29%

    Day after tomorrow, 22 October, Monday

    Time Temperature Precipitation Wind Pressure Humidity
    00:00 +14°C° 0 mm 1 mps 719 mmHg 30%
    01:00 +14°C° 0 mm 1 mps 719 mmHg 31%
    02:00 +14°C° 0 mm 1 mps 719 mmHg 32%
    03:00 +13°C° 0 mm 1 mps 719 mmHg 32%
    04:00 +13°C° 0 mm 1 mps 719 mmHg 33%
    05:00 +13°C° 0 mm 1 mps 719 mmHg 32%
    06:00 +14°C° 0 mm 1 mps 719 mmHg 31%
    07:00 +14°C° 0 mm 1 mps 719 mmHg 31%
    08:00 +16°C° 0 mm 1 mps 719 mmHg 27%
    09:00 +20°C° 0 mm 1 mps 719 mmHg 23%
    10:00 +20°C° 0 mm 0 mps 720 mmHg 19%
    11:00 +22°C° 0 mm 1 mps 719 mmHg 18%
    12:00 +23°C° 0 mm 1 mps 719 mmHg 17%
    13:00 +24°C° 0 mm 1 mps 719 mmHg 16%
    14:00 +23°C° 0 mm 2 mps 719 mmHg 16%
    15:00 +23°C° 0 mm 2 mps 718 mmHg 17%
    16:00 +23°C° 0 mm 2 mps 718 mmHg 17%
    17:00 +20°C° 0 mm 2 mps 718 mmHg 20%
    18:00 +19°C° 0 mm 2 mps 718 mmHg 23%
    19:00 +17°C° 0 mm 2 mps 718 mmHg 25%
    20:00 +17°C° 0 mm 2 mps 718 mmHg 26%
    21:00 +16°C° 0 mm 2 mps 718 mmHg 27%
    22:00 +16°C° 0 mm 2 mps 718 mmHg 28%
    23:00 +15°C° 0 mm 2 mps 718 mmHg 29%

    23 October, Tuesday

    Time Temperature Precipitation Wind Pressure Humidity
    00:00 +15°C° 0 mm 2 mps 718 mmHg 29%
    01:00 +14°C° 0 mm 2 mps 718 mmHg 30%
    02:00 +14°C° 0 mm 2 mps 718 mmHg 30%
    03:00 +14°C° 0 mm 2 mps 718 mmHg 31%
    04:00 +13°C° 0 mm 2 mps 718 mmHg 31%
    05:00 +14°C° 0 mm 2 mps 718 mmHg 31%
    06:00 +14°C° 0 mm 2 mps 719 mmHg 31%
    07:00 +14°C° 0 mm 2 mps 719 mmHg 31%
    08:00 +16°C° 0 mm 2 mps 719 mmHg 28%
    09:00 +18°C° 0 mm 2 mps 720 mmHg 24%
    10:00 +19°C° 0 mm 2 mps 720 mmHg 21%
    11:00 +20°C° 0 mm 3 mps 720 mmHg 20%
    12:00 +21°C° 0 mm 3 mps 720 mmHg 19%
    13:00 +22°C° 0 mm 3 mps 719 mmHg 18%
    14:00 +21°C° 0 mm 3 mps 719 mmHg 19%
    15:00 +21°C° 0 mm 4 mps 719 mmHg 20%
    16:00 +20°C° 0 mm 4 mps 719 mmHg 22%
    17:00 +19°C° 0 mm 4 mps 719 mmHg 24%
    18:00 +18°C° 0 mm 4 mps 719 mmHg 26%
    19:00 +15°C° 0 mm 4 mps 719 mmHg 29%
    20:00 +15°C° 0 mm 4 mps 719 mmHg 30%
    21:00 +14°C° 0 mm 3 mps 719 mmHg 31%
    22:00 +14°C° 0 mm 3 mps 719 mmHg 32%
    23:00 +13°C° 0 mm 3 mps 719 mmHg 33%

    24 October, Wednesday

    Time Temperature Precipitation Wind Pressure Humidity
    00:00 +13°C° 0 mm 3 mps 719 mmHg 33%
    01:00 +13°C° 0 mm 3 mps 718 mmHg 33%
    02:00 +12°C° 0 mm 3 mps 718 mmHg 34%
    03:00 +12°C° 0 mm 3 mps 718 mmHg 34%
    04:00 +12°C° 0 mm 3 mps 718 mmHg 35%
    05:00 +12°C° 0 mm 3 mps 718 mmHg 34%
    06:00 +12°C° 0 mm 3 mps 718 mmHg 34%
    07:00 +13°C° 0 mm 3 mps 718 mmHg 34%
    08:00 +16°C° 0 mm 3 mps 718 mmHg 30%
    09:00 +18°C° 0 mm 3 mps 719 mmHg 26%
    10:00 +20°C° 0 mm 2 mps 719 mmHg 22%
    11:00 +21°C° 0 mm 2 mps 718 mmHg 21%
    12:00 +21°C° 0 mm 2 mps 718 mmHg 19%
    13:00 +23°C° 0 mm 1 mps 718 mmHg 18%
    14:00 +23°C° 0 mm 2 mps 718 mmHg 18%
    15:00 +23°C° 0 mm 2 mps 718 mmHg 19%
    16:00 +21°C° 0 mm 2 mps 718 mmHg 20%
    17:00 +20°C° 0 mm 2 mps 718 mmHg 22%
    18:00 +19°C° 0 mm 2 mps 718 mmHg 24%
    19:00 +18°C° 0 mm 2 mps 718 mmHg 27%
    20:00 +17°C° 0 mm 2 mps 718 mmHg 27%
    21:00 +17°C° 0 mm 2 mps 717 mmHg 28%
    22:00 +16°C° 0 mm 2 mps 717 mmHg 28%
    23:00 +16°C° 0 mm 2 mps 717 mmHg 28%

    25 October, Thursday

    Time Temperature Precipitation Wind Pressure Humidity
    00:00 +15°C° 0 mm 2 mps 717 mmHg 29%
    01:00 +15°C° 0 mm 2 mps 717 mmHg 29%
    02:00 +15°C° 0 mm 2 mps 717 mmHg 29%
    03:00 +15°C° 0 mm 2 mps 717 mmHg 29%
    04:00 +14°C° 0 mm 2 mps 717 mmHg 29%
    05:00 +15°C° 0 mm 2 mps 717 mmHg 28%
    06:00 +15°C° 0 mm 2 mps 717 mmHg 27%
    07:00 +15°C° 0 mm 2 mps 717 mmHg 27%
    08:00 +18°C° 0 mm 1 mps 717 mmHg 23%
    09:00 +20°C° 0 mm 1 mps 717 mmHg 20%
    10:00 +22°C° 0 mm 1 mps 717 mmHg 16%
    11:00 +22°C° 0 mm 1 mps 717 mmHg 16%
    12:00 +23°C° 0 mm 1 mps 717 mmHg 15%
    13:00 +23°C° 0 mm 1 mps 717 mmHg 14%
    14:00 +23°C° 0 mm 1 mps 717 mmHg 15%
    15:00 +23°C° 0 mm 1 mps 717 mmHg 16%
    16:00 +23°C° 0 mm 2 mps 717 mmHg 16%
    17:00 +21°C° 0 mm 2 mps 717 mmHg 17%
    18:00 +20°C° 0 mm 2 mps 717 mmHg 18%
    19:00 +18°C° 0 mm 2 mps 717 mmHg 19%
    20:00 +18°C° 0 mm 2 mps 716 mmHg 20%
    21:00 +18°C° 0 mm 3 mps 716 mmHg 20%
    22:00 +17°C° 0 mm 3 mps 716 mmHg 21%
    23:00 +17°C° 0 mm 3 mps 716 mmHg 21%
    Show more